Location: Observatory
(52.1446°N, 0.4624°W)
Time: 16:01:33
(UTC+01:00)

ISS - Visible Passes

Search period start: 20 September 2018 00:00
Search period end: 30 September 2018 00:00
Orbit: 403 x 408 km, 51.6° (Epoch: 20 September)

Date Brightness Start Highest point End Pass type
(mag) Time Alt. Az. Time Alt. Az. Time Alt. Az.
22 Sep -1.3 21:01:03 10° SSW 21:01:33 13° SSW 21:01:33 13° SSW visible
23 Sep -2.1 20:09:55 10° S 20:12:07 17° SE 20:12:18 17° SE visible
23 Sep -0.8 21:44:54 10° WSW 21:45:01 11° WSW 21:45:01 11° WSW visible
24 Sep -2.8 20:53:12 10° SW 20:55:33 33° SSW 20:55:33 33° SSW visible
25 Sep -2.7 20:01:40 10° SSW 20:04:33 28° SSE 20:05:57 20° ESE visible
25 Sep -1.4 21:37:29 10° WSW 21:38:38 20° WSW 21:38:38 20° WSW visible
26 Sep -3.8 20:45:38 10° WSW 20:48:54 60° SSE 20:48:54 60° SSE visible
27 Sep -3.4 19:53:52 10° SW 19:57:02 45° SSE 19:59:04 19° E visible
27 Sep -1.8 21:30:07 10° W 21:31:45 27° W 21:31:45 27° W visible
28 Sep -4.0 20:38:11 10° WSW 20:41:30 78° S 20:41:51 67° ESE visible
29 Sep -3.7 19:46:18 10° WSW 19:49:34 66° SSE 19:51:53 18° E visible
29 Sep -2.0 21:22:43 10° W 21:24:33 30° W 21:24:33 30° W visible
